Location: Chamerau
(49.1969°N, 12.7525°E)
Time: 09:18:03
(UTC+00:00)

Cosmos 2251 Rocket - Pass Details

Date: 18 September 2020
Orbit: 765 x 792 km, 74.0° (Epoch: 27 October)

Event Time Altitude Azimuth Distance (km) Brightness Sun altitude
Rises 20:05:55 0° 340° (NNW) 3,302 7.7 -26.7°
Reaches altitude 10° 20:08:29 10° 348° (NNW) 2,368 6.7 -27.0°
Enters shadow 20:12:49 38° 38° (NE) 1,190 4.4 -27.6°
